Wind_Speed
15 11 14 17 16 11 13 9 11 13 13 11 22 18 16 20 19 18 16 15 16 16 18 22 22 22 23 21 21 20 18 17 16 16 14 14 12 14 12 14 16 10 8 9
15 15 18 16 10 2 10 9 13 12 8 11 18 19 17 14 19 20 19 17 17 17 17 21 23 23 23 23 23 23 21 18 21 16 17 16 8 10 9 6 13 16 12 10
18 17 16 16 3 7 9 11 11 12 9 10 11 17 19 16 13 19 20 19 17 18 18 17 21 23 24 25 26 24 24 23 20 20 16 13 11 14 9 11 20 27 13 14
17 19 16 8 9 10 13 11 5 9 13 11 13 8 17 18 15 19 19 20 19 19 17 16 21 22 23 24 26 25 26 23 22 20 18 15 12 9 14 13 9 11 12 11
18 17 9 10 13 16 14 8 2 6 9 12 15 8 16 18 17 15 18 21 20 20 19 19 22 25 25 25 26 27 26 24 22 22 20 16 13 13 16 10 11 11 12 13
18 16 11 15 14 14 12 2 5 8 11 12 14 9 16 16 19 18 19 20 19 21 20 19 24 26 25 25 26 28 28 26 24 21 21 21 13 12 7 4 2 7 4 8
18 19 16 13 15 17 9 8 7 8 8 11 16 8 10 9 17 8 18 19 19 19 20 20 20 23 24 26 27 28 31 27 25 24 21 20 18 14 11 8 12 6 7 7
15 14 14 16 20 15 11 15 11 4 6 10 9 5 3 16 11 3 4 13 20 19 19 22 22 29 28 27 28 29 31 28 27 25 24 22 19 17 17 17 14 10 6 6
16 19 20 19 16 12 14 14 19 15 16 8 11 8 10 8 4 8 3 7 13 21 19 19 21 28 29 26 28 26 31 28 27 26 25 24 21 20 19 13 15 11 7 6
17 12 20 21 15 20 17 14 12 7 11 8 7 11 8 12 8 8 0 8 9 12 18 18 18 27 30 29 27 27 28 27 26 27 26 25 24 20 18 15 12 9 8 8
22 18 14 20 17 19 16 12 10 13 9 7 4 7 12 10 9 6 3 2 7 9 13 15 16 29 29 30 30 33 37 35 28 23 22 23 24 20 16 13 8 9 9 11
24 12 14 20 16 15 15 16 14 10 8 9 5 10 14 9 8 4 5 7 7 12 8 4 6 10 22 26 28 30 6 30 29 31 24 23 30 16 12 5 7 12 11 13
20 16 14 17 19 16 17 18 19 14 12 11 9 9 14 9 9 7 5 5 3 7 10 10 16 30 15 16 53 24 24 16 16 11 18 22 7 7 7 9 12 14 15 20
14 19 17 14 16 18 21 21 20 18 12 14 11 14 15 13 13 10 6 3 3 8 6 17 11 19 23 41 9 20 21 13 14 13 13 23 25 15 9 8 10 15 19 21
17 16 19 23 22 17 18 21 20 18 18 15 4 4 12 11 10 8 6 4 5 4 8 5 11 13 9 17 24 25 21 13 17 16 18 15 5 11 11 13 16 19 22 24
16 14 16 22 22 23 20 23 21 23 22 13 14 11 16 13 10 10 7 4 3 4 8 10 14 11 19 18 15 16 18 14 13 13 8 5 3 10 12 15 18 21 24 25
15 14 13 18 22 21 20 15 21 19 14 16 14 13 16 13 10 7 6 6 3 4 9 11 17 13 14 12 18 19 13 10 10 8 9 9 11 14 16 18 21 23 23 24
15 13 12 14 15 23 17 13 16 13 15 16 16 17 14 13 11 8 5 6 9 11 10 10 16 17 20 18 15 11 10 9 8 8 10 13 15 16 17 18 19 20 20 24
20 14 13 12 16 16 24 18 14 14 13 13 21 18 17 16 14 10 9 12 14 15 14 17 17 19 18 15 11 8 8 8 8 12 14 15 16 17 18 19 21 23 22 23
22 18 12 12 17 20 14 15 12 11 10 13 19 15 17 13 6 9 13 15 14 17 15 15 16 14 12 9 8 8 9 10 12 13 14 15 17 18 18 22 23 21 23 23
9 8 18 14 13 15 3 7 9 14 6 14 16 13 14 8 5 16 14 14 16 14 14 13 13 11 10 8 8 8 8 11 12 15 16 17 18 21 21 21 23 24 23 24
11 10 11 11 15 18 11 14 14 8 11 12 13 13 19 19 18 17 16 14 15 14 11 10 10 9 10 11 10 9 9 10 12 16 17 18 20 20 20 21 23 21 21 22
17 14 12 2 3 10 15 18 11 11 11 10 11 18 19 18 17 16 13 12 12 12 9 9 8 10 13 10 9 9 9 11 16 18 18 19 22 24 18 20 24 18 21 19
14 21 12 9 9 14 13 14 12 11 13 11 18 16 17 18 17 15 12 10 11 12 9 9 7 6 4 6 7 7 8 13 16 17 19 21 21 21 22 23 22 19 21 19
13 10 10 6 15 15 14 12 13 13 13 16 15 15 17 18 16 13 11 10 12 9 6 6 6 6 9 9 10 6 9 14 15 16 18 18 20 21 20 22 21 22 20 17
2 10 5 10 16 8 15 12 16 16 16 16 18 18 17 16 14 15 11 11 10 7 6 6 8 7 8 8 9 13 14 14 14 16 15 17 18 20 20 21 22 20 23 14
Wind_Direction
207 222 226 233 236 284 314 253 155 154 162 224 151 146 162 167 159 162 165 171 174 175 173 173 180 179 171 178 177 187 190 200 190 206 208 223 243 241 239 251 258 249 212 243
227 222 239 242 240 355 272 294 147 127 137 245 141 159 163 183 171 164 168 173 179 177 170 171 180 180 179 182 182 189 199 203 206 212 223 235 237 267 245 240 306 281 228 243
232 210 234 245 185 236 231 248 145 164 156 252 269 160 160 177 198 165 171 168 184 179 175 171 181 183 188 182 184 190 198 206 207 212 224 237 256 267 317 315 304 277 302 11
227 254 201 220 228 221 227 238 308 166 182 212 220 213 167 173 195 173 177 168 182 177 173 173 180 186 193 187 185 197 199 204 209 213 229 230 231 250 258 215 209 249 257 242
219 238 210 215 217 209 253 23 119 261 281 262 209 245 173 175 187 198 186 179 186 171 174 176 184 188 198 194 189 191 193 198 205 210 215 230 223 244 259 175 192 263 251 227
240 210 211 228 218 246 248 171 268 264 255 237 243 231 154 186 183 198 198 190 185 172 173 170 182 182 197 196 193 186 189 194 202 207 215 223 234 241 276 71 255 298 17 103
222 231 213 216 220 223 223 215 215 221 219 241 233 202 131 140 176 185 191 188 181 178 174 169 170 176 193 199 192 184 182 187 196 205 210 218 225 230 231 221 236 224 307 32
215 215 212 197 222 216 217 232 234 200 251 220 142 194 112 100 108 110 336 193 183 183 183 176 173 174 185 198 191 184 178 182 193 201 209 214 218 216 217 226 233 233 261 272
196 226 195 218 220 213 206 235 261 284 284 268 172 180 134 142 127 139 224 239 209 184 188 186 177 172 178 196 189 184 174 180 192 202 205 207 210 212 215 237 226 242 260 248
245 217 219 194 198 238 234 203 242 251 279 232 248 154 136 127 154 100 46 271 253 202 187 181 183 173 177 185 192 184 176 181 192 201 201 198 199 205 223 237 241 255 278 286
242 255 237 183 196 213 221 235 241 251 241 294 223 64 94 104 105 103 125 268 301 287 193 181 192 171 177 182 190 189 183 179 190 197 200 202 194 201 211 230 238 257 266 269
226 245 252 190 194 223 244 213 229 252 245 284 322 137 114 119 132 130 74 65 338 322 275 231 181 80 125 313 191 195 226 182 177 190 190 208 209 185 173 214 262 271 268 272
204 229 243 250 190 191 230 228 217 236 265 268 254 136 135 122 114 80 61 28 139 286 325 58 76 78 84 218 270 151 190 206 175 143 198 178 230 125 167 198 256 273 281 277
229 216 234 233 230 200 206 225 236 223 220 239 212 153 153 152 133 144 127 107 316 338 283 85 99 116 165 257 73 72 66 71 60 74 47 61 37 360 306 280 291 287 279 277
228 236 226 238 258 224 206 212 235 246 249 228 171 90 111 99 98 97 88 61 357 308 316 6 134 160 191 59 49 60 58 34 26 37 34 48 87 263 294 290 281 280 281 283
206 236 230 244 241 257 242 206 205 228 237 248 269 116 142 131 142 150 133 116 91 333 315 73 78 57 93 106 72 69 66 58 37 28 21 335 292 283 297 303 305 304 299 298
212 223 216 237 243 254 253 243 196 214 213 225 232 130 132 145 136 124 113 100 92 49 50 64 92 80 70 68 64 59 55 42 31 9 348 338 329 326 327 325 321 315 310 309
195 230 214 231 228 244 254 231 240 218 219 201 124 109 102 101 91 87 84 104 95 85 77 73 77 80 77 71 62 56 40 32 3 340 350 347 339 331 327 322 315 313 313 310
187 219 222 231 232 234 247 237 217 237 245 235 120 123 122 115 107 83 80 86 92 88 81 80 81 72 66 60 51 40 34 5 348 5 350 341 335 327 319 315 313 309 308 309
201 189 225 211 245 232 238 215 193 222 240 121 125 134 134 139 162 123 98 98 96 98 101 103 97 90 84 64 41 29 17 0 13 348 338 334 327 320 320 311 311 318 317 313
222 226 201 216 225 239 172 57 170 218 224 144 125 135 136 141 118 123 114 109 109 110 107 103 99 96 83 54 31 19 7 19 354 346 334 327 326 321 316 322 321 319 316 312
195 235 225 215 231 240 163 154 183 136 109 104 110 105 101 114 122 128 121 119 125 122 109 102 95 93 81 56 29 10 15 356 348 335 327 328 321 311 307 306 307 305 312 308
198 214 220 8 254 105 104 117 105 92 86 98 113 115 122 131 133 127 130 124 120 113 93 81 71 77 67 43 22 9 1 354 343 330 326 321 308 304 313 319 314 319 324 311
193 198 223 134 128 119 123 117 124 123 121 123 119 130 138 129 126 130 125 121 107 88 84 77 69 65 45 22 42 12 4 352 342 336 328 315 313 339 330 317 323 336 321 333
164 184 138 101 126 113 119 126 124 111 111 111 118 132 127 122 118 110 101 99 96 97 82 86 74 37 35 18 360 31 12 353 334 328 324 329 338 323 326 335 332 330 343 342
354 170 120 171 148 150 128 121 128 120 121 124 117 111 113 117 126 116 105 103 110 107 86 68 68 35 23 7 8 18 357 341 330 330 332 330 326 328 340 330 332 335 340 347
Height
747 763 767 745 734 729 731 731 743 737 733 741 751 761 758 753 759 770 778 783 786 790 794 802 807 811 816 821 825 829 831 833 835 838 840 842 844 846 845 843 841 839 842 849
753 766 736 723 721 733 736 738 743 736 734 741 747 757 752 751 754 759 768 778 781 785 789 797 802 807 812 817 821 825 828 831 833 836 838 839 843 842 840 837 838 830 830 838
755 738 724 726 736 746 742 742 741 748 741 738 742 760 758 750 745 749 754 764 771 777 784 791 798 802 807 811 816 821 825 827 830 833 835 838 842 838 843 841 832 826 802 839
743 718 726 732 743 741 755 724 729 738 753 778 739 787 760 753 755 750 750 757 761 767 775 784 792 798 801 806 811 815 819 823 827 830 832 834 840 838 835 837 829 832 834 840
743 733 732 742 741 729 742 719 732 739 751 754 750 767 757 744 761 754 748 748 750 756 765 776 784 791 796 800 804 809 815 819 823 825 829 830 834 834 830 829 829 833 836 837
725 709 718 728 722 721 718 736 740 743 751 782 754 756 760 752 750 746 740 738 742 749 756 766 777 785 790 794 798 803 808 813 818 821 823 825 828 830 831 831 832 832 830 831
734 725 714 715 734 721 730 751 785 793 785 784 734 755 757 727 728 728 730 731 733 739 747 756 765 776 784 786 789 794 800 806 811 815 818 820 822 824 827 828 828 829 827 827
754 764 727 712 726 736 741 746 768 792 781 765 736 767 750 724 723 723 724 724 725 732 738 744 751 762 773 779 783 786 791 797 802 806 810 814 817 819 820 822 822 823 822 823
743 749 708 711 711 717 742 758 727 752 740 760 748 740 728 722 727 726 729 727 725 725 728 737 745 755 766 775 778 781 784 788 792 795 798 802 808 812 816 818 820 821 820 820
716 744 709 710 710 712 722 719 760 749 785 783 755 759 759 743 739 733 736 731 725 722 721 732 739 748 758 766 777 775 778 779 780 785 790 793 797 801 807 812 815 817 817 818
707 720 720 706 725 736 733 740 736 733 741 769 780 779 732 737 734 737 734 729 726 724 723 726 733 741 754 761 766 767 754 754 771 788 796 799 794 800 803 808 811 815 816 817
702 715 736 721 703 704 711 729 734 757 767 748 758 773 727 734 733 732 731 731 730 727 725 727 734 740 745 765 758 760 756 753 765 771 773 796 774 786 795 809 812 814 814 815
697 721 746 736 714 709 728 721 724 730 734 757 768 770 724 730 736 734 735 733 734 733 733 738 751 755 781 787 757 755 760 761 764 785 767 775 787 794 797 799 806 810 810 812
687 710 728 740 727 712 732 727 718 727 751 750 750 752 738 736 741 741 738 736 736 737 738 750 757 762 769 770 756 755 764 768 773 777 787 792 808 809 809 807 806 806 806 807
691 719 713 712 705 701 713 722 723 730 727 743 736 739 742 740 743 744 742 743 742 741 740 744 756 764 782 762 777 763 773 782 779 780 788 795 804 815 811 807 805 802 801 800
684 719 713 721 705 703 708 703 712 719 719 721 723 742 727 730 739 743 745 745 748 750 747 751 763 757 774 776 774 771 786 790 789 791 797 803 803 811 806 801 798 796 796 794
698 706 723 737 714 712 724 703 704 710 707 717 738 732 731 741 745 747 746 743 750 753 756 761 773 774 771 775 778 788 795 794 794 799 802 803 802 800 798 795 794 793 792 790
698 710 712 730 726 756 703 678 685 699 700 698 716 727 734 742 746 749 743 745 753 759 765 770 776 782 786 790 794 795 795 797 801 802 802 801 799 798 796 794 793 791 788 786
675 701 719 731 733 717 703 689 695 706 713 694 719 728 735 742 748 755 749 751 759 767 774 779 783 787 790 793 796 799 801 803 803 802 801 800 799 797 795 793 790 787 784 781
668 685 710 719 738 743 704 680 675 685 730 697 708 722 731 737 761 768 760 764 770 776 781 784 789 794 797 800 802 802 803 803 803 803 802 800 798 795 793 790 787 784 781 777
693 694 710 715 726 713 686 674 671 731 726 693 703 715 724 742 745 758 765 773 778 783 787 790 793 797 800 802 803 803 804 805 805 803 801 799 796 794 790 787 784 780 777 773
700 709 708 708 723 732 672 682 712 704 696 702 709 716 733 745 752 760 769 778 784 788 791 793 795 799 801 803 805 805 806 806 804 803 800 797 794 791 787 784 780 776 773 769
698 687 695 699 698 681 680 694 693 695 705 708 716 726 737 748 756 765 773 780 785 790 794 796 797 800 804 806 808 807 807 805 803 800 798 795 791 787 784 780 775 772 769 765
665 659 678 691 694 686 691 692 694 698 703 710 719 731 738 748 759 769 776 783 788 793 796 799 801 804 805 807 807 806 806 804 802 800 796 792 788 784 781 778 773 770 766 764
653 676 678 695 691 693 693 696 699 703 710 717 725 733 742 751 763 772 780 786 792 797 799 801 803 805 805 806 806 805 805 804 802 800 795 790 787 784 779 776 773 769 766 764
653 666 692 700 697 694 699 699 703 711 718 725 733 742 749 757 767 776 785 791 795 798 801 802 804 805 805 806 806 805 805 804 801 798 794 792 788 784 780 776 772 769 766 763